Location: Bolton
(53.5720°N, 2.4300°W)
Time: 01:26:43
(UTC+01:00)

ISS - Visible Passes

Search period start: 21 September 2020 00:00
Search period end: 01 October 2020 00:00
Orbit: 419 x 420 km, 51.6° (Epoch: 21 September)

Date Brightness Start Highest point End Pass type
(mag) Time Alt. Az. Time Alt. Az. Time Alt. Az.
21 Sep -2.3 19:53:12 10° SSW 19:55:56 23° SSE 19:58:28 11° E visible
21 Sep -2.8 21:29:01 10° WSW 21:31:27 40° SW 21:31:27 40° SW visible
22 Sep -3.4 20:41:44 10° WSW 20:44:59 47° SSE 20:45:57 35° ESE visible
22 Sep -0.9 22:18:16 10° W 22:18:55 15° W 22:18:55 15° W visible
23 Sep -3.0 19:54:30 10° SW 19:57:39 38° SSE 20:00:24 13° E visible
23 Sep -2.8 21:30:53 10° W 21:33:21 43° WSW 21:33:21 43° WSW visible
24 Sep -3.7 20:43:30 10° WSW 20:46:50 61° S 20:47:45 42° ESE visible
24 Sep -0.8 22:20:12 10° W 22:20:42 13° W 22:20:42 13° W visible
25 Sep -3.5 19:56:09 10° WSW 19:59:27 55° S 20:02:05 15° E visible
25 Sep -2.5 21:32:47 10° W 21:35:02 37° WSW 21:35:02 37° WSW visible
26 Sep -3.6 20:45:21 10° W 20:48:41 62° S 20:49:21 48° SE visible
26 Sep -0.5 22:22:10 10° W 22:22:18 11° W 22:22:18 11° W visible
27 Sep -3.6 19:57:55 10° W 20:01:16 63° S 20:03:39 18° E visible
27 Sep -2.0 21:34:39 10° W 21:36:36 28° WSW 21:36:36 28° WSW visible
28 Sep -3.4 20:47:11 10° W 20:50:28 49° SSW 20:50:54 45° SSE visible
29 Sep -3.4 19:59:43 10° W 20:03:03 57° S 20:05:12 20° ESE visible
29 Sep -1.4 21:36:39 10° W 21:38:10 19° WSW 21:38:10 19° WSW visible
30 Sep -2.6 20:49:04 10° W 20:52:08 32° SSW 20:52:29 31° S visible
